www.pogodaiklimat.ru

Погода и климат >> Архив погоды >> Россия >> Алтайский край >> Шелаболиха


ПОГОДА в Шелаболихе

  • Прогноз погоды в Шелаболихе
  • Монитор погоды в Шелаболихе
  • Климат города

АРХИВ ПОГОДЫ в Шелаболихе

Время (UTC), дата Ветер
(напр.,м/с)
 
Видим.   Явления Облачность Т
(С)
Тd
(С)
f
(%)
Тe
(С)
Тes
(С)
Комфортность P
(гПа)
Po
(гПа)
Тmin
(С)
Tmax
(С)
R
(мм)
R24
(мм)
S
(см)
18 12.09 ЮЗ 3 50 км 10/10 600 м
[Sc]
+9.5 +8.9 96 +7 +7 1006.4 985.7
21 12.09 З 3 10 км слабый ливневой дождь, в посл. час гроза 10 баллов +9.7 +9.2 97 +7 +7 1009.7 989.3
00 13.09 СЗ 5
{10}
10 км ливневой дождь {гроза} 10/10 600 м
[Cb cap]
+8.5 +7.9 96 +5 +5 1012.5 991.6 +7.1 80
03 13.09 СЗ 5
{11}
50 км 10 баллов +7.8 +6.4 91 +4 +4 1018.0 997.3
06 13.09 СЗ 5 50 км {ливн. осадки} 9/9 600 м
[Cb cap]
+9.3 +7.5 89 +6 +6 1020.9 999.9
09 13.09 СЗ 4
{11}
50 км 10 баллов +9.8 +6.1 78 +7 +7 1024.7 1004.0
12 13.09 СЗ 4
{11}
50 км 10/10 600 м
[Cb cap]
+8.6 +5.3 80 +6 +6 1026.0 1004.8 +10.3 1
15 13.09 ЮЗ 1 50 км 10 баллов +6.6 +5.5 93 +5 +5 1027.7 1006.7
18 13.09 З 2 50 км {ливн. осадки} 10/10 600 м
[Sc]
+7.0 +5.0 87 +5 +5 1028.0 1006.6
21 13.09 штиль 0 50 км 10 баллов +5.9 +4.9 93 +5 +5 1029.1 1008.0
00 14.09 ЮЗ 1
{9}
50 км 10/10 600 м
[Sc]
+5.9 +5.0 94 +5 +5 1028.3 1006.9 +5.6 2
03 14.09 З 3 50 км 10 баллов +8.7 +6.0 83 +6 +6 1028.9 1008.0
06 14.09 З 5 50 км 9/9 600 м
[Sc]
+10.9 +1.6 53 +8 +9 1027.7 1006.6
09 14.09 З 4 50 км 10 баллов +11.8 +2.3 52 +10 +10 1027.3 1006.7
12 14.09 ЮЗ 2
{8}
50 км 8/8 600 м
[Sc diur, vesp]
+11.1 +3.6 60 +10 +10 1025.8 1004.8 +12.9
15 14.09 ЮЗ 1 50 км 10 баллов +8.6 +5.2 79 +8 +8 1026.1 1005.3
18 14.09 ЮЗ 3 50 км 10/10 600 м
[Sc]
+9.2 +5.3 77 +7 +7 1024.5 1003.4
21 14.09 ЮЗ 3 50 км 9 баллов +9.2 +4.2 71 +7 +7 1024.8 1004.0
00 15.09 ЮЗ 4
{7}
50 км 10/10 600 м
[Sc]
+8.2 +4.2 76 +5 +5 1022.9 1001.7 +8.2
03 15.09 ЮЗ 4 50 км 10 баллов +12.2 +4.4 59 +10 +10 1023.2 1002.7 +7.8
06 15.09 ЮЗ 6
{10}
50 км 10/0
[Ac trans Ci fib]
+18.1 +6.3 46 +18 +20 1020.5 1000.1
09 15.09 З 6
{12}
50 км 7 баллов +20.2 +7.6 44 +21 +22 комфорт 1019.9 1000.0
12 15.09 ЮЗ 4
{12}
50 км 6/0
[Ci fib]
+18.9 +7.6 48 +19 +19 1017.9 997.6 +20.5
15 15.09 ЮЗ 2 50 км 2 балла +11.3 +7.6 78 +10 +10 1019.2 998.7
18 15.09 ЮЗ 3 50 км ясно +11.9 +6.9 71 +10 +10 1016.8 996.0
21 15.09 ЮЗ 3 50 км ясно +10.3 +7.2 81 +8 +8 1016.5 996.0
00 16.09 ЮЗ 4
{8}
50 км 4/0
[Ci fib]
+10.0 +7.0 82 +7 +7 1014.4 993.5 +8.6
03 16.09 ЮЗ 7
{11}
50 км 10 баллов +16.0 +8.5 61 +15 +15 1014.8 994.7
06 16.09 ЮЗ 10
{14}
50 км 10 баллов +22.5 +10.6 47 +24 +24 комфорт 1012.9 993.3
09 16.09 З 6
{16}
50 км 10 баллов +22.5 +10.3 46 +24 +24 комфорт 1012.9 993.3
12 16.09 З 3
{13}
50 км 10/3 600 м
[Sc Ci]
+20.4 +9.8 51 +22 +22 комфорт 1013.2 993.1 +24.0
15 16.09 З 2 50 км ясно +15.4 +8.4 63 +15 +15 1016.1 996.0
18 16.09 З 2 50 км ясно +12.8 +7.5 70 +12 +12 1016.3 995.6
21 16.09 З 1 50 км ясно +7.7 +5.8 88 +7 +7 1018.0 997.3
00 17.09 ЮЗ 2
{5}
50 км ясно +7.9 +6.6 91 +6 +6 1019.2 998.1 +6.4
03 17.09 Ю 1 50 км 2 балла +15.1 +10.3 73 +16 +18 1020.2 1000.0
06 17.09 З 3 50 км 3/0
[Ci fib]
+20.3 +9.1 49 +22 +28 комфорт 1018.6 998.4
09 17.09 ЮЗ 4 50 км 2 балла +22.7 +8.0 39 +24 +27 комфорт 1017.0 997.3
12 17.09 ЮЗ 3
{8}
50 км 3/0
[Ci fib]
+20.3 +9.0 48 +22 +22 комфорт 1014.7 994.5 +22.9
15 17.09 ЮЗ 3 50 км ясно +14.1 +9.3 73 +13 +13 1014.9 994.7
18 17.09 ЮЗ 4 50 км зарница 4/4 600 м
[Cb cap]
+14.9 +8.9 67 +14 +14 1011.6 991.2
21 17.09 ЮЗ 5 50 км 10 баллов +18.0 +8.5 54 +18 +18 1010.6 990.7
00 18.09 З 4
{9}
50 км 9/9 600 м
[Cb cap]
+16.7 +9.6 63 +16 +16 1010.1 989.8 +13.5
03 18.09 З 4 50 км 10 баллов +16.6 +10.9 69 +16 +16 1012.0 992.0
06 18.09 З 7
{11}
50 км 10 баллов +17.6 +13.3 76 +17 +17 1011.9 992.0
09 18.09 З 2
{11}
50 км 7 баллов +20.1 +13.3 65 +23 +24 комфорт 1010.4 990.7
12 18.09 З 2
{11}
50 км 10/10 600 м
[Cb cap]
+16.9 +12.9 77 +17 +17 1009.9 989.7 +20.1 2
15 18.09 З 2 50 км в посл. час ливневой дождь 10 баллов +13.9 +12.1 89 +13 +13 1009.4 989.3
18 18.09 ЮЗ 2 50 км {ливн. осадки} 8/8 600 м
[Cb cap]
+10.5 +9.3 92 +9 +9 1009.5 988.8
21 18.09 З 2 50 км ясно +9.6 +7.2 85 +8 +8 1011.2 990.7
00 19.09 З 4
{6}
50 км 4/1 600 м
[Sc Cc]
+8.0 +6.6 91 +5 +5 1011.4 990.5 +6.1 0.0
03 19.09 З 5 50 км 4 балла +12.4 +7.9 74 +10 +11 1012.3 992.0
06 19.09 З 5
{10}
50 км в посл. час ливневой дождь 10 баллов +13.1 +8.6 74 +11 +11 1013.5 993.3
09 19.09 З 5
{11}
50 км 10 баллов +12.4 +8.5 77 +10 +10 1013.6 993.3
12 19.09 З 2
{11}
50 км {ливн. осадки} 10/6 600 м
[Cb cap Ci fib]
+9.5 +7.7 89 +8 +8 1015.3 994.4 +13.8 2

 

Местоположение метеостанции Шелаболиха (Алтайский край, Россия): широта 53.42 долгота 82.60 высота над уровнем моря 170 м.

В архиве по умолчанию представлена погода в Шелаболихе за последнюю неделю. Архивные данные за месяц целиком и за предыдущие месяцы, начиная с января 2011 года, Вы можете получить, выбрав интересующий диапазон дат из раскрывающегося списка и нажав кнопку "Ввод!".

Внимание! Время в таблицах - всемирное. Для получения местного времени необходимо прибавить поправку, которая в Шелаболихе равна 7 ч.

Смотрите также архив погоды в соседних городах и на ближайших метеорологических станциях:

Погода в Ребрихе (Алтайский край, Россия) (42 км)
Погода в Сузуне (Новосибирская область, Россия) (43 км)
Погода в Барнауле (Алтайский край, Россия) (61 км)
Погода в Тальменке (Алтайский край, Россия) (78 км)
Погода в Камень-на-Оби (Алтайский край, Россия) (98 км)
Погода в Алейской (Алтайский край, Россия) (101 км)
Погода в Мамонтово (Алтайский край, Россия) (103 км)
Погода в Посевной (Новосибирская область, Россия) (109 км)
Погода в Ордынском (Новосибирская область, Россия) (115 км)
Погода в Дальнем (Новосибирская область, Россия) (119 км)

Пояснения к столбцам:

Ветер - указаны скорость ветра в м/с - средняя за 10 мин, порывы в срок и между сроками (в фигурных скобках) и направление, откуда дует ветер: С - северный, СВ - северо-восточный, В - восточный, ЮВ - юго-восточный, Ю - южный, ЮЗ - юго-западный, З - западный, СЗ - северо-западный.
Видимость - горизонтальная дальность видимости в метрах или километрах. При видимости от 1 до 10 км при отсутствии осадков обычно наблюдается дымка, при ухудшении видимости до 1 км и менее - туман. В сухую погоду видимость может ухудшаться дымом, пылью или мглою.
Явления - указаны атмосферные явления, наблюдавшиеся в срок или в последний час перед сроком; фигурными скобками обозначены явления, наблюдавшиеся между сроками (за 1-3 часа до срока); квадратными скобками обозначены град или гололедные отложения с указанием их диаметра в мм.
Облачность - указаны через наклонную черту общая и нижняя облачность в баллах и высота нижней границы облаков в метрах; квадратными скобками обозначены формы облаков: Ci - перистые, Cs - перисто-слоистые, Cc - перисто-кучевые, Ac - высококучевые, As - высокослоистые, Sc - слоисто-кучевые, Ns - слоисто-дождевые, Cu - кучевые, Cb - кучево-дождевые. Подробнее классификацию облаков см. в Атласе облаков (PDF).
T - Температура воздуха - температура, измеренная на высоте 2 м над землей.
Td - Температура точки росы - температура, при понижении до которой содержащийся в воздухе водяной пар достигнет насыщения.
f - Относительная влажность воздуха - влажноcть воздуха, измеренная на высоте 2 м над землей.
Te - Эффективная температура - температура, которую ощущает одетый по сезону человек в тени. Характеристика душности погоды. При расчете учитывается влияние влажности воздуха и скорости ветра на теплоощущения человека.
Tes - Эффективная температура на солнце - температура, которую ощущает человек, с поправкой на солнечный нагрев. Характеристика знойности погоды. Зависит от высоты солнца над горизонтом, облачности и скорости ветра. Ночью, в пасмурную погоду, а также при ветре 12 м/с и более поправка равна нулю.
P - Атмосферное давление - приведенное к уровню моря атмосферное давление.
Po - Атмосферное давление - измеренное на уровне метеостанции атмосферное давление.
Tmin - Минимальная температура - минимум температуры воздуха на высоте 2 м над землей.
Tmax - Максимальная температура - максимум температуры воздуха на высоте 2 м над землей.
R - Количество осадков - Количество выпавших осадков за период времени, мм. При наведении курсора мыши на число - период времени, за который выпало указанное количество осадков.
R24 - Количество осадков - Количество выпавших осадков за 24 часа, мм.
S - Снежный покров - Высота снежного покрова, см. При наведении курсора мыши на число - состояние снежного покрова и степень покрытия местности в баллах.